TITAN 3C TRANSTAGE DEB, 20672

Orbit data source: Space-Track

TITAN 3C TRANSTAGE DEB, 20672 is space debris in HEO originally from a launch on Tue, 21 Dec 1965 UTC launched from the Air Force Eastern Test Range (AFETR). Debris objects in space refer to the collection of defunct objects orbiting the Earth. Examples of debris include non-operational satellites, rocket bodies, and fragments generated from explosions, collisions, or faulty payload assembly.

Loading next visibility...
Identifier
20672, 1965-108AD
Orbit
HEO
Country
Flag of USUS
Related business
Manufacturer
Unknown
Mission
Spacecraft
Bus & Motor
Unknown
Mass
Unknown
Launch date (UTC)
1965-12-21 (60 years ago)
Launch vehicle
Unknown
Launch site
Air Force Eastern Test Range (AFETR)
Object type
Payload
Rocket body
Debris
Shape & HBR
Unknown shape, 0.1 m
Radar Cross Section
Small (<0.1 m²)

Expand to show TLE details & history
Last TLE update: 6 days ago

TLE from 6 days ago
0 TITAN 3C TRANSTAGE DEB
1 20672U 65108AD  25337.14875889 -.00000103  00000-0  14400-3 0  9994
2 20672  27.0402 293.3322 6805688 173.2168 349.1350  2.70042374 42221
Epoch: 2025-12-03T03:34Z
TLE epoch observation values (Epoch: 2025-12-03T03:34:12.768Z)
Latitude
25.5754°
Longitude
-81.24799°
Altitude
2,635.794 km
Speed
8.377 km/s
True Right ascension
02h 58m 06s
True Declination
25° 28' 11"
Sunlit
Object was in full shadow at epoch
Visualization orbit readout
Latitude
Unknown
Longitude
Unknown
Altitude
Unknown
Speed
Unknown
Apparent Right ascension
Unknown
Apparent Declination
Unknown
Sunlit
N/A
Visualization observer readout
Local Sidereal Time
00:51:38
Azimuth
Unknown
Elevation
Unknown
Doppler factor
Unknown
Orbital elements
Apogee altitude
30,235.357 km
Perigee altitude
581.109 km
Semi-major axis
21,786.37 km
Eccentricity
0.68057
Inclination
27.0402°
RAAN
293.3322°
Arg. of periapsis
173.2168°
True anomaly
295.29766°
Mean anomaly
349.135°
Eccentric anomaly
329.12432°
Mean motion
0.67494 °/min
Orbital period
533.38 mins
BSTAR
0.000144
Loading maneuver chart data...
Computing Atmospheric mass density...

Documentation

Showing up to 5 results
|